This is the latest recevied weather packets stored in our database for station/object IZ2WMD-13. If no packets are shown the sender has not sent any weather packets the latest 10 day(s).
| Time | Temp. | Humidity | Pressure | Rain* | Wind** | Luminosity | Snow |
|---|---|---|---|---|---|---|---|
| 1777542421 | 15° C | 47% | 1024.3 hPa | - | - | - | - |
| 1777541216 | 13.89° C | 48% | 1024.4 hPa | - | - | - | - |
| 1777540011 | 13.33° C | 48% | 1024.3 hPa | - | - | - | - |
| 1777538807 | 13.89° C | 50% | 1024.2 hPa | - | - | - | - |
| 1777537602 | 14.44° C | 49% | 1023.8 hPa | - | - | - | - |
| 1777536398 | 14.44° C | 49% | 1023.7 hPa | - | - | - | - |
| 1777533989 | 13.33° C | 58% | 1023.5 hPa | - | - | - | - |
| 1777532785 | 13.33° C | 65% | 1023.4 hPa | - | - | - | - |
| 1777531580 | 12.22° C | 67% | 1023.1 hPa | - | - | - | - |
| 1777530375 | 12.22° C | 67% | 1023.1 hPa | - | - | - | - |
| 1777527966 | 11.67° C | 75% | 1022.8 hPa | - | - | - | - |
| 1777526762 | 11.67° C | 76% | 1022.4 hPa | - | - | - | - |
| 1777525557 | 11.67° C | 78% | 1022.2 hPa | - | - | - | - |
| 1777524352 | 11.67° C | 79% | 1021.8 hPa | - | - | - | - |
| 1777521943 | 12.22° C | 85% | 1021.3 hPa | - | - | - | - |
| 1777519534 | 11.67° C | 86% | 1021.1 hPa | - | - | - | - |
| 1777518329 | 12.22° C | 90% | 1021.2 hPa | - | - | - | - |
| 1777517125 | 12.22° C | 90% | 1021.2 hPa | - | - | - | - |
| 1777515920 | 12.22° C | 90% | 1021.1 hPa | - | - | - | - |
| 1777513511 | 12.22° C | 90% | 1021 hPa | - | - | - | - |
| 1777512307 | 12.22° C | 93% | 1021 hPa | - | - | - | - |
| 1777511102 | 12.78° C | 94% | 1020.9 hPa | - | - | - | - |
| 1777509898 | 12.78° C | 93% | 1020.8 hPa | - | - | - | - |
| 1777508693 | 12.78° C | 92% | 1020.9 hPa | - | - | - | - |
| 1777507489 | 12.78° C | 92% | 1020.5 hPa | - | - | - | - |
* Rain since midnight (hover to see other rain measurements)
** Current wind speed in m/s (hover to see current wind gust speed)